Location: Overspoor
(51.4747°N, 5.6641°E)
Time: 00:12:48
(UTC+02:00)

KKS-1 - Pass Details

Date: 03 July 2022
Orbit: 635 x 648 km, 98.2° (Epoch: 07 August)

Event Time Altitude Azimuth Distance (km) Brightness Sun altitude
Rises 00:06:46 0° 12° (NNE) 2,979 ? -12.7°
Reaches altitude 10° 00:08:59 10° 10° (N) 2,063 ? -12.8°
Maximum altitude 00:13:28 69° 288° (WNW) 696 ? -13.1°
Enters shadow 00:17:52 10° 206° (SSW) 2,035 ? -13.3°
